Location: Bidart
(43.4376°N, 1.5913°W)
Time: 08:08:18
(UTC+00:00)

USA 229 DEB - Pass Details

Date: 18 April 2026
Orbit: 844 x 1364 km, 63.4° (Epoch: 10 January)

Event Time Altitude Azimuth Distance (km) Brightness Sun altitude
Rises 01:04:47 0° 323° (NW) 3,995 7.1 -34.1°
Reaches altitude 10° 01:07:23 10° 325° (NW) 3,101 6.5 -34.0°
Maximum altitude 01:14:59 78° 52° (NE) 1,304 4.0 -33.5°
Enters shadow 01:16:07 67° 113° (ESE) 1,383 4.1 -33.5°
